Regional Weather Roundup
Issued by NWS

Home | Current Version | Previous Version | Text Only | Print | Product List | Glossary Off
Versions: 1 2 3 4 5 6 7 8 9 10 11 12 13 14 15 16 17 18 19 20 21 22 23 24 25 26 27 28 29 30 31 32 33 34 35 36 37 38 39 40 41 42 43 44 45 46 47 48 49 50

000
ASUS43 KOAX 210510
RWRNE

WEATHER ROUNDUP FOR NEBRASKA
NATIONAL WEATHER SERVICE OMAHA NE
1200 AM CDT SUN SEP 21 2014

NOTES: SATELLITE DATA IS BEING USED TO AUGMENT CLOUD COVER ABOVE
       12000 FEET.
       "FAIR" INDICATES FEW OR NO CLOUDS BELOW 12,000 FEET WITH NO
       SIGNIFICANT WEATHER AND/OR OBSTRUCTIONS TO VISIBILITY.

  * THESE STATIONS DO NOT REPORT WEATHER SUCH AS RAIN...SNOW OR FOG.

NEZ001>004-019>022-054>056-210600-
NEBRASKA PANHANDLE

CITY           SKY/WX    TMP DP  RH WIND       PRES   REMARKS
SCOTTSBLUFF    CLEAR     55  42  61 SE5       30.31R
ALLIANCE       CLEAR     44  38  79 NW5       30.29R
CHADRON        CLEAR     49  42  77 SW6       30.28R
KIMBALL        CLEAR     57  40  54 CALM      30.33R
SIDNEY         CLEAR     56  42  59 NE6       30.32R
$$

NEZ057>060-069>072-079>082-210600-
SOUTHWEST NEBRASKA

CITY           SKY/WX    TMP DP  RH WIND       PRES   REMARKS
NORTH PLATTE   CLEAR     60  43  53 CALM      30.22R
IMPERIAL       CLEAR     60  47  61 N6        30.25R
LEXINGTON      CLEAR     56  49  75 CALM      30.20R
MCCOOK         CLEAR     59  51  75 N7        30.21R
OGALLALA       CLEAR     61  45  56 CALM      30.26R
$$

NEZ005>010-023>029-035>040-094-210600-
NORTH CENTRAL NEBRASKA

CITY           SKY/WX    TMP DP  RH WIND       PRES   REMARKS
VALENTINE      CLEAR     52  41  66 W8        30.21R
AINSWORTH      CLEAR     53  42  68 W8        30.20R
BROKEN BOW     CLEAR     58  44  60 N9        30.18R
O`NEILL        CLEAR     56  46  68 NW6       30.14S
ORD            CLEAR     55  46  71 NW6       30.15R
THEDFORD       CLEAR     55  43  63 NW5       30.23R
$$

NEZ041-046>049-061>064-073>077-083>087-210600-
SOUTH CENTRAL NEBRASKA

CITY           SKY/WX    TMP DP  RH WIND       PRES   REMARKS
GRAND ISLAND   CLEAR     61  48  62 NW6       30.15R
AURORA         CLEAR     58  51  76 NW6       30.13R
HASTINGS       CLEAR     61  50  67 N7        30.15R
HEBRON         CLEAR     68  51  54 N5        30.11R
HOLDREGE       CLEAR     59  50  72 CALM      30.18R
KEARNEY *      CLEAR     61  48  63 NW7       30.18R
YORK           CLEAR     59  54  82 N5        30.12R
$$

NEZ011>018-030>034-042>045-210600-
NORTHEAST NEBRASKA

CITY           SKY/WX    TMP DP  RH WIND       PRES   REMARKS
NORFOLK        CLEAR     58  49  72 W7        30.11R
ALBION         CLEAR     54  47  80 CALM      30.14R
BLAIR          CLEAR     67  51  57 N12       30.07R
COLUMBUS *     CLEAR     57  48  72 W6        30.13R
FREMONT        CLEAR     61  52  72 CALM      30.09R
TEKAMAH        CLEAR     60  52  74 N3        30.07R
WAYNE          CLEAR     51  48  89 CALM      30.09S
$$

NEZ050>053-065>068-078-088>093-210600-
SOUTHEAST NEBRASKA

CITY           SKY/WX    TMP DP  RH WIND       PRES   REMARKS
LINCOLN        CLEAR     63  52  67 N13       30.09R
OMAHA EPPLEY   CLEAR     64  54  69 N5        30.06R
BEATRICE       CLEAR     66  54  65 N14       30.09R
FALLS CITY     PTCLDY    68  66  93 NW9G17    30.02R
NEBRASKA CITY    N/A     68  48  48 N9        30.06R
PLATTSMOUTH    CLEAR     66  51  57 N6        30.06R
$$

NEZ044-045-051>053-067-210600-
OMAHA AREA

CITY           SKY/WX    TMP DP  RH WIND       PRES   REMARKS
OMAHA EPPLEY   CLEAR     64  54  69 N5        30.06R
BLAIR          CLEAR     67  51  57 N12       30.07R
FREMONT        CLEAR     61  52  72 CALM      30.09R
MILLARD        CLEAR     69  52  54 NW3       30.06R
OFFUTT AFB     CLEAR     68  55  62 N7        30.06R
PLATTSMOUTH    CLEAR     66  51  57 N6        30.06R
WAHOO          FAIR      61  53  73 NW6       30.09R
$$



USA.gov is the U.S. government's official web portal to all federal, state and local government web resources and services.